sat.trackr.live / text

‹ back to catalog

STARLINK-30140

NORAD 57458 · 2023-107B

PAYLOAD ACTIVE UNKNOWN

§ Identity

Operator
Country
US
Launch date
2023-07-28
Launch site
AFETR
Launch vehicle
Mass (kg)
RCS (m²)

Purposes: comms

External: N2YO · Heavens-Above · Gunter

§ Orbital elements

Epoch: 2026-05-25T00:42:33.492384Z

Period
94.27 min
Inclination
43.0014°
Eccentricity
0.0000906
Mean motion
15.27578530 rev/d
Perigee alt
482.4 km
Apogee alt
483.7 km
Semi-major
6,861.2 km
B*
-2.4261e-5
RAAN
268.2736°
Arg perigee
282.2072°
Mean anomaly
77.8678°
Rev number
15,678

§ Raw data

STARLINK-301401 57458U 23107B   26145.02955431 -.00000929  00000+0 -24261-4 0  99992 57458  43.0014 268.2736 0000906 282.2072  77.8678 15.27578530156788

JSON: /api/v1/satellites/57458 · /tle

For live sub-satellite position, see the globe view (requires WebGL).

§ Visibility from observer

Set your observer location to see the next 7 days of passes ≥ 10°. The values pass through the URL so the page stays shareable.

No JS? Fill the form by hand. The geolocation button needs JavaScript.